Total_Precipitation_Accumulation
0.34 0.33 0.31 0.29 0.29 0.29 0.30 0.34 0.40 0.41 0.32 0.20 0.17 0.15 0.16 0.23 0.36 0.37 0.33 0.23 0.16 0.11 0.08 0.06 0.05 0.06 0.07 0.08 0.08 0.10 0.13 0.18 0.30 0.45 0.60 0.73 0.83 0.91
0.28 0.26 0.24 0.22 0.22 0.21 0.23 0.25 0.30 0.39 0.35 0.20 0.13 0.12 0.16 0.21 0.35 0.38 0.40 0.35 0.25 0.16 0.11 0.08 0.07 0.07 0.08 0.10 0.11 0.12 0.15 0.19 0.27 0.37 0.51 0.65 0.77 0.91
0.23 0.21 0.19 0.16 0.17 0.17 0.18 0.20 0.23 0.30 0.34 0.22 0.14 0.13 0.17 0.24 0.31 0.34 0.34 0.32 0.28 0.26 0.18 0.15 0.13 0.11 0.11 0.12 0.14 0.17 0.21 0.26 0.32 0.39 0.51 0.66 0.76 0.81
0.20 0.17 0.16 0.15 0.15 0.15 0.16 0.18 0.21 0.28 0.36 0.34 0.21 0.14 0.16 0.21 0.27 0.29 0.25 0.24 0.27 0.29 0.22 0.16 0.13 0.13 0.18 0.15 0.13 0.16 0.22 0.31 0.39 0.45 0.55 0.65 0.72 0.75
0.18 0.18 0.18 0.18 0.17 0.17 0.19 0.21 0.24 0.28 0.37 0.40 0.27 0.20 0.19 0.26 0.36 0.35 0.30 0.38 0.31 0.26 0.22 0.18 0.16 0.17 0.40 0.46 0.22 0.18 0.21 0.33 0.40 0.46 0.57 0.63 0.63 0.61
0.11 0.14 0.16 0.17 0.19 0.23 0.24 0.27 0.31 0.36 0.37 0.39 0.32 0.25 0.26 0.31 0.43 0.50 0.46 0.43 0.39 0.24 0.27 0.24 0.23 0.28 0.65 1.20 0.67 0.35 0.29 0.33 0.39 0.44 0.49 0.49 0.46 0.42
0.09 0.12 0.13 0.14 0.19 0.21 0.23 0.27 0.36 0.42 0.44 0.47 0.42 0.36 0.34 0.43 0.51 0.53 0.50 0.48 0.41 0.33 0.39 0.35 0.50 0.84 1.36 2.00 1.54 0.88 0.63 0.52 0.45 0.45 0.46 0.45 0.40 0.32
0.13 0.13 0.10 0.10 0.10 0.11 0.15 0.23 0.32 0.42 0.50 0.56 0.54 0.52 0.46 0.51 0.60 0.61 0.61 0.60 0.49 0.36 0.40 0.41 0.70 1.45 2.16 2.54 2.11 1.31 0.98 0.77 0.63 0.64 0.65 0.56 0.43 0.32
0.17 0.16 0.12 0.10 0.14 0.20 0.19 0.19 0.28 0.34 0.47 0.62 0.67 0.60 0.57 0.60 0.71 0.75 0.71 0.70 0.66 0.48 0.50 0.54 0.87 1.73 2.08 2.30 2.11 1.44 1.14 0.96 0.85 0.88 0.85 0.64 0.44 0.32
0.14 0.16 0.21 0.24 0.18 0.15 0.17 0.27 0.39 0.46 0.50 0.56 0.65 0.60 0.56 0.57 0.65 0.68 0.67 0.68 0.62 0.55 0.58 0.68 0.97 1.61 1.73 1.87 1.94 1.50 1.23 1.10 1.03 1.00 0.92 0.68 0.47 0.37
0.11 0.12 0.15 0.21 0.15 0.14 0.22 0.40 0.49 0.61 0.62 0.74 0.74 0.68 0.67 0.65 0.56 0.54 0.68 0.79 0.73 0.54 0.53 0.67 0.92 1.27 1.40 1.54 1.57 1.46 1.34 1.25 1.15 1.08 0.96 0.70 0.52 0.44
0.15 0.18 0.14 0.11 0.12 0.17 0.26 0.45 0.61 0.68 0.83 1.02 0.98 0.91 0.85 0.80 0.67 0.61 0.79 0.91 0.87 0.70 0.56 0.63 0.81 1.00 1.22 1.31 1.26 1.23 1.32 1.37 1.29 1.25 1.08 0.78 0.52 0.44
0.19 0.24 0.24 0.17 0.16 0.19 0.30 0.50 0.67 0.70 0.90 1.17 1.06 0.88 0.81 0.74 0.73 0.74 0.80 0.84 0.81 0.77 0.61 0.66 0.82 0.94 1.05 1.16 1.18 1.20 1.20 1.27 1.32 1.39 1.29 0.99 0.65 0.46
0.30 0.30 0.29 0.25 0.22 0.28 0.41 0.60 0.73 0.88 1.03 1.13 0.95 0.76 0.64 0.61 0.62 0.59 0.57 0.59 0.63 0.64 0.60 0.66 0.86 1.01 1.01 0.95 1.10 1.16 1.19 1.25 1.32 1.39 1.40 1.18 0.89 0.68
0.29 0.34 0.33 0.30 0.37 0.56 0.68 0.79 0.91 1.06 1.09 0.96 0.82 0.71 0.58 0.52 0.49 0.48 0.47 0.50 0.54 0.48 0.44 0.50 0.70 0.89 0.94 0.91 1.01 1.06 1.17 1.40 1.45 1.44 1.41 1.26 1.04 0.82
0.26 0.39 0.47 0.50 0.64 0.84 0.97 1.06 1.13 1.14 0.99 0.87 0.75 0.65 0.53 0.48 0.46 0.42 0.44 0.46 0.49 0.50 0.44 0.45 0.58 0.74 0.84 0.84 0.93 1.05 1.14 1.54 1.67 1.49 1.43 1.40 1.19 0.97
0.25 0.40 0.56 0.62 0.76 0.91 1.02 1.07 1.09 1.07 0.98 0.85 0.74 0.64 0.55 0.50 0.47 0.41 0.40 0.42 0.45 0.47 0.48 0.50 0.57 0.62 0.67 0.72 0.88 1.04 1.18 1.43 1.57 1.39 1.25 1.36 1.31 1.09
0.30 0.50 0.63 0.65 0.74 0.83 0.92 0.99 0.98 0.93 0.86 0.80 0.75 0.69 0.60 0.52 0.49 0.44 0.41 0.41 0.44 0.45 0.46 0.45 0.44 0.42 0.47 0.61 0.87 0.98 1.03 1.23 1.29 1.16 0.97 1.03 1.21 1.08
0.37 0.57 0.67 0.73 0.78 0.81 0.82 0.85 0.90 0.89 0.81 0.74 0.70 0.63 0.55 0.49 0.46 0.43 0.38 0.37 0.38 0.38 0.36 0.30 0.27 0.25 0.30 0.62 0.93 1.03 0.97 0.97 0.94 0.92 0.84 0.79 0.94 0.95
0.41 0.56 0.67 0.73 0.77 0.79 0.77 0.73 0.76 0.78 0.72 0.64 0.59 0.54 0.49 0.46 0.41 0.39 0.35 0.28 0.27 0.26 0.26 0.23 0.22 0.23 0.28 0.49 0.91 1.14 0.96 0.72 0.64 0.68 0.69 0.69 0.81 0.87
0.38 0.50 0.60 0.65 0.66 0.66 0.67 0.65 0.65 0.67 0.63 0.57 0.53 0.49 0.45 0.41 0.37 0.30 0.26 0.18 0.21 0.22 0.23 0.27 0.28 0.22 0.19 0.25 0.54 0.85 0.90 0.81 0.60 0.51 0.50 0.52 0.56 0.53
0.34 0.45 0.54 0.56 0.55 0.51 0.49 0.49 0.50 0.50 0.50 0.48 0.47 0.45 0.41 0.36 0.29 0.24 0.21 0.21 0.22 0.20 0.20 0.22 0.21 0.18 0.18 0.23 0.40 0.60 0.68 0.60 0.54 0.53 0.49 0.38 0.32 0.40
0.32 0.36 0.42 0.45 0.44 0.40 0.36 0.34 0.34 0.37 0.38 0.38 0.39 0.38 0.33 0.29 0.23 0.18 0.16 0.13 0.13 0.14 0.13 0.16 0.16 0.15 0.15 0.17 0.23 0.31 0.34 0.32 0.28 0.31 0.45 0.48 0.41 0.47